Location: 相模原市立博物館
(35.5593°N, 139.3931°E)
Time: 20:36:44
(UTC+09:00)

X-37B - Visible Passes

Search period start: 23 October 2021 00:00
Search period end: 02 November 2021 00:00
Orbit: 342 x 346 km, 45.0° (Epoch: 22 October)

Date Brightness Start Highest point End Pass type
(mag) Time Alt. Az. Time Alt. Az. Time Alt. Az.
23 Oct 3.3 18:50:38 10° NW 18:51:12 14° NNW 18:51:12 14° NNW visible
24 Oct 2.4 17:38:36 10° NNW 17:40:36 17° NNE 17:42:08 12° NE visible
25 Oct 1.4 18:01:34 10° NW 18:04:11 29° NNE 18:04:33 28° NE visible
26 Oct 0.8 18:24:41 10° WNW 18:27:05 56° NW 18:27:05 56° NW visible
27 Oct 2.9 18:48:15 10° W 18:49:48 22° WSW 18:49:48 22° WSW visible
28 Oct 0.3 17:35:39 10° WNW 17:38:34 90° S 17:41:15 11° ESE visible
29 Oct 2.5 17:59:18 10° W 18:01:45 25° SW 18:04:11 10° SSE visible
31 Oct 3.0 17:10:21 10° W 17:12:41 22° SW 17:15:01 10° SSE visible
